CW9487 Weather Reports


time (UTC)temp
C
wind
direction
speed
KPH
gust
KPH
rain 1hr
cm
rain 24hr
cm
rain mn
cm
humidity
%
barometer
mb
20260504003007 12 275 0.0 0.0 0.00 0.00 0.00 44 1019.1
20260504001504 11 275 0.0 0.0 0.00 0.00 0.00 49 1019.1
20260504000003 11 275 0.0 0.0 0.00 0.00 0.00 55 1019.1
20260503234502 11 275 0.0 0.0 0.00 0.00 0.00 48 1019.1
20260503233102 11 275 0.0 0.0 0.00 0.00 0.00 51 1019.4
20260503231554 11 275 0.0 0.0 0.00 0.00 0.00 69 1019.4
20260503230110 10 275 0.0 0.0 0.00 0.00 0.00 72 1019.4
20260503224553 10 275 0.0 0.0 0.00 0.00 0.00 73 1019.5
20260503223050 11 275 0.0 0.0 0.00 0.00 0.00 72 1019.6
20260503221554 11 275 0.0 0.0 0.00 0.00 0.00 74 1019.6
20260503220050 11 275 0.0 0.0 0.00 0.00 0.00 74 1019.5
20260503214550 11 275 0.0 0.0 0.00 0.00 0.00 78 1019.4
20260503213045 11 275 0.0 0.0 0.00 0.00 0.00 77 1019.3
20260503211547 11 275 0.0 0.0 0.00 0.00 0.00 78 1019.4
20260503210045 11 275 0.0 0.0 0.00 0.00 0.00 74 1019.3
20260503204543 11 275 0.0 0.0 0.00 0.00 0.00 78 1019.3
20260503203102 11 275 0.0 1.6 0.00 0.00 0.00 76 1019.4
20260503201543 12 275 0.0 3.2 0.00 0.00 0.00 74 1019.3
20260503200042 12 330 0.0 1.6 0.00 0.00 0.00 68 1019.3
20260503194544 12 330 1.6 9.7 0.00 0.00 0.00 64 1019.2
20260503193041 13 294 0.0 6.4 0.00 0.00 0.00 63 1019.1
20260503191547 13 294 0.0 6.4 0.00 0.00 0.00 60 1018.8
20260503190050 14 277 1.6 9.7 0.00 0.00 0.00 64 1018.8
20260503184538 13 306 4.8 9.7 0.00 0.00 0.00 63 1018.6
20260503183037 13 309 3.2 12.9 0.00 0.00 0.00 65 1018.5
20260503181538 13 318 3.2 12.9 0.00 0.00 0.00 64 1018.5
20260503180037 13 284 3.2 12.9 0.00 0.00 0.00 62 1018.5
20260503174535 13 267 0.0 14.5 0.00 0.00 0.00 69 1018.5
20260503173034 14 287 0.0 1.6 0.00 0.00 0.00 74 1018.4
20260503171534 15 294 0.0 12.9 0.00 0.00 0.00 68 1018.4
20260503081507 20 308 0.0 3.2 0.00 0.00 0.00 46 1020.9
20260503071546 16 238 0.0 0.0 0.00 0.00 0.00 59 1020.9
20260503060107 11 238 0.0 0.0 0.00 0.00 0.00 80 1021.0
20260503054554 11 238 0.0 0.0 0.00 0.00 0.00 78 1020.8
20260503053041 12 238 0.0 0.0 0.00 0.00 0.00 75 1020.7
20260503051536 12 264 1.6 11.3 0.00 0.00 0.00 66 1020.5
20260503050037 12 311 3.2 14.5 0.00 0.00 0.00 67 1020.5
20260503044535 11 298 3.2 8.0 0.00 0.00 0.00 69 1020.4
20260503043037 10 300 3.2 9.7 0.00 0.00 0.00 70 1020.3
20260503041534 10 266 0.0 0.0 0.00 0.00 0.00 76 1020.4
20260503040038 10 259 0.0 0.0 0.00 0.00 0.00 79 1020.4
20260503034533 10 259 0.0 0.0 0.00 0.00 0.00 83 1020.4
20260503033034 10 259 0.0 6.4 0.00 0.00 0.00 88 1020.4
20260503031531 10 229 0.0 4.8 0.00 0.00 0.00 88 1020.5
20260503030030 10 213 0.0 3.2 0.00 0.00 0.00 87 1020.5
20260503024530 10 213 0.0 0.0 0.00 0.00 0.00 85 1020.5
20260503023028 10 213 0.0 3.2 0.00 0.00 0.00 92 1020.5
20260503021528 10 298 0.0 4.8 0.00 0.00 0.00 92 1020.6
20260503020027 10 308 0.0 0.0 0.00 0.00 0.00 89 1020.7
20260503014526 10 308 0.0 0.0 0.00 0.00 0.00 86 1020.7
20260503013022 10 308 0.0 0.0 0.00 0.00 0.00 85 1020.6
20260503011523 10 308 0.0 0.0 0.00 0.00 0.00 83 1020.8
20260503010025 10 308 0.0 0.0 0.00 0.00 0.00 84 1020.8
20260503004518 11 308 0.0 0.0 0.00 0.00 0.00 80 1021.0